Location: �perlecques
(50.8057°N, 2.1521°E)
Time: 14:33:07
(UTC+00:00)

KKS-1 - Visible Passes

Search period start: 01 April 2023 00:00
Search period end: 11 April 2023 00:00
Orbit: 632 x 646 km, 98.2° (Epoch: 01 April)

Date Brightness Start Highest point End Pass type
(mag) Time Alt. Az. Time Alt. Az. Time Alt. Az.
01 Apr ? 22:19:17 10° NNE 22:20:49 21° NNE 22:20:49 21° NNE visible
01 Apr ? 23:56:30 10° NNW 23:58:23 18° NW 23:58:23 18° NW visible
02 Apr ? 22:42:27 10° NNE 22:44:25 26° NNE 22:44:25 26° NNE visible
03 Apr ? 00:20:27 10° NNW 00:22:00 13° NW 00:22:00 13° NW visible
03 Apr ? 21:30:00 10° NE 21:30:27 12° NE 21:30:27 12° NE visible
03 Apr ? 23:05:46 10° N 23:08:01 28° N 23:08:01 28° N visible
04 Apr ? 21:52:42 10° NNE 21:54:02 18° NE 21:54:02 18° NE visible
04 Apr ? 23:29:12 10° N 23:31:36 26° NNW 23:31:36 26° NNW visible
05 Apr ? 22:15:41 10° NNE 22:17:37 25° NNE 22:17:37 25° NNE visible
05 Apr ? 23:52:47 10° N 23:55:11 21° NW 23:55:11 21° NW visible
06 Apr ? 22:38:49 10° NNE 22:41:12 32° NNE 22:41:12 32° NNE visible
07 Apr ? 00:16:38 10° NNW 00:18:46 15° NW 00:18:46 15° NW visible
07 Apr ? 21:26:27 10° NE 21:27:12 13° NE 21:27:12 13° NE visible
07 Apr ? 23:02:04 10° N 23:04:46 35° N 23:04:46 35° N visible
08 Apr ? 21:49:05 10° NNE 21:50:46 19° NE 21:50:46 19° NE visible
08 Apr ? 23:25:27 10° N 23:28:20 31° NNW 23:28:20 31° NNW visible
09 Apr ? 22:12:00 10° NNE 22:14:19 28° NE 22:14:19 28° NE visible
09 Apr ? 23:48:59 10° N 23:51:53 23° NW 23:51:53 23° NW visible
10 Apr ? 22:35:05 10° NNE 22:37:52 38° NNE 22:37:52 38° NNE visible
